Time,TemperatureF,DewpointF,PressureIn,WindDirection,WindDirectionDegrees,WindSpeedMPH,WindSpeedGustMPH,Humidity,HourlyPrecipIn,Conditions,Clouds,dailyrainin,SoftwareType,DateUTC
2013-02-26 00:01:00,32.0,21.0,-100.00,NNE,25,3.0,7.0,64,0.00,,,-99.99,,2013-02-26 05:01:00,
2013-02-26 00:12:00,32.0,21.0,-100.00,ENE,60,4.0,7.0,64,0.00,,,-99.99,,2013-02-26 05:12:00,
2013-02-26 00:22:00,32.0,21.0,-100.00,NNE,25,5.0,10.0,63,0.00,,,-99.99,,2013-02-26 05:22:00,
2013-02-26 00:32:00,32.0,21.0,-100.00,NE,50,4.0,8.0,63,0.00,,,-99.99,,2013-02-26 05:32:00,
2013-02-26 00:43:00,32.0,21.0,-100.00,ENE,70,4.0,9.0,64,0.00,,,-99.99,,2013-02-26 05:43:00,
2013-02-26 00:52:00,32.0,21.0,-100.00,ENE,75,6.0,9.0,64,0.00,,,-99.99,,2013-02-26 05:52:00,
2013-02-26 01:02:00,32.0,21.0,-100.00,ENE,70,6.0,11.0,64,0.00,,,-99.99,,2013-02-26 06:02:00,
2013-02-26 01:11:00,32.0,21.0,-100.00,ENE,60,4.0,12.0,64,0.00,,,-99.99,,2013-02-26 06:11:00,
2013-02-26 01:21:00,32.0,21.0,-100.00,ENE,60,7.0,12.0,64,0.00,,,-99.99,,2013-02-26 06:21:00,
2013-02-26 01:32:00,32.0,21.0,-100.00,ENE,75,7.0,11.0,65,0.00,,,-99.99,,2013-02-26 06:32:00,
2013-02-26 01:42:00,32.0,21.0,-100.00,East,80,7.0,12.0,64,0.00,,,-99.99,,2013-02-26 06:42:00,
2013-02-26 01:52:00,32.0,21.0,-100.00,ENE,75,6.0,12.0,64,0.00,,,-99.99,,2013-02-26 06:52:00,
2013-02-26 02:01:00,32.0,21.0,-100.00,ENE,70,7.0,13.0,63,0.00,,,-99.99,,2013-02-26 07:01:00,
2013-02-26 02:11:00,32.0,21.0,-100.00,East,80,7.0,13.0,64,0.00,,,-99.99,,2013-02-26 07:11:00,
2013-02-26 02:22:00,31.0,21.0,-100.00,ENE,75,7.0,11.0,64,0.00,,,-99.99,,2013-02-26 07:22:00,
2013-02-26 02:32:00,31.0,21.0,-100.00,East,85,6.0,11.0,64,0.00,,,-99.99,,2013-02-26 07:32:00,
2013-02-26 02:42:00,32.0,21.0,-100.00,ENE,75,7.0,11.0,63,0.00,,,-99.99,,2013-02-26 07:42:00,
2013-02-26 02:51:00,32.0,21.0,-100.00,ENE,75,7.0,12.0,64,0.00,,,-99.99,,2013-02-26 07:51:00,
2013-02-26 03:02:00,31.0,21.0,-100.00,ENE,75,7.0,11.0,64,0.00,,,-99.99,,2013-02-26 08:02:00,
2013-02-26 03:11:00,31.0,21.0,-100.00,East,80,7.0,9.0,65,0.00,,,-99.99,,2013-02-26 08:11:00,
2013-02-26 03:21:00,31.0,21.0,-100.00,ENE,75,6.0,11.0,64,0.00,,,-99.99,,2013-02-26 08:21:00,
2013-02-26 03:32:00,31.0,21.0,-100.00,ENE,75,5.0,9.0,65,0.00,,,-99.99,,2013-02-26 08:32:00,
2013-02-26 03:42:00,31.0,21.0,-100.00,ENE,75,7.0,10.0,64,0.00,,,-99.99,,2013-02-26 08:42:00,
2013-02-26 03:52:00,31.0,20.0,-100.00,ENE,75,8.0,14.0,63,0.00,,,-99.99,,2013-02-26 08:52:00,
2013-02-26 04:02:00,31.0,20.0,-100.00,East,80,6.0,12.0,64,0.00,,,-99.99,,2013-02-26 09:02:00,
2013-02-26 04:11:00,31.0,20.0,-100.00,ENE,70,7.0,11.0,64,0.00,,,-99.99,,2013-02-26 09:11:00,
2013-02-26 04:21:00,31.0,20.0,-100.00,ENE,75,6.0,12.0,64,0.00,,,-99.99,,2013-02-26 09:21:00,
2013-02-26 04:32:00,31.0,20.0,-100.00,ENE,75,8.0,14.0,63,0.00,,,-99.99,,2013-02-26 09:32:00,
2013-02-26 04:43:00,31.0,20.0,-100.00,ENE,75,9.0,12.0,64,0.00,,,-99.99,,2013-02-26 09:43:00,
2013-02-26 04:51:00,31.0,20.0,-100.00,East,80,7.0,12.0,63,0.00,,,-99.99,,2013-02-26 09:51:00,
2013-02-26 05:01:00,31.0,20.0,-100.00,ENE,60,6.0,12.0,63,0.00,,,-99.99,,2013-02-26 10:01:00,
2013-02-26 05:11:00,31.0,20.0,-100.00,ENE,65,7.0,11.0,64,0.00,,,-99.99,,2013-02-26 10:11:00,
2013-02-26 05:21:00,31.0,20.0,-100.00,ENE,75,6.0,11.0,64,0.00,,,-99.99,,2013-02-26 10:21:00,
2013-02-26 05:32:00,31.0,20.0,-100.00,East,90,9.0,12.0,63,0.00,,,-99.99,,2013-02-26 10:32:00,
2013-02-26 05:42:00,31.0,20.0,-100.00,East,80,7.0,13.0,62,0.00,,,-99.99,,2013-02-26 10:42:00,
2013-02-26 05:52:00,31.0,20.0,-100.00,East,85,7.0,11.0,63,0.00,,,-99.99,,2013-02-26 10:52:00,
2013-02-26 06:01:00,31.0,20.0,-100.00,East,80,9.0,12.0,63,0.00,,,-99.99,,2013-02-26 11:01:00,
2013-02-26 06:12:00,31.0,20.0,-100.00,ENE,70,6.0,13.0,63,0.00,,,-99.99,,2013-02-26 11:12:00,
2013-02-26 06:22:00,31.0,20.0,-100.00,ENE,75,6.0,12.0,63,0.00,,,-99.99,,2013-02-26 11:22:00,
2013-02-26 06:32:00,31.0,20.0,-100.00,East,80,9.0,12.0,62,0.00,,,-99.99,,2013-02-26 11:32:00,
2013-02-26 06:42:00,31.0,20.0,-100.00,ENE,70,10.0,14.0,62,0.00,,,-99.99,,2013-02-26 11:42:00,
2013-02-26 06:52:00,32.0,20.0,-100.00,ENE,70,8.0,16.0,61,0.00,,,-99.99,,2013-02-26 11:52:00,
2013-02-26 07:02:00,32.0,20.0,-100.00,East,80,9.0,14.0,62,0.00,,,-99.99,,2013-02-26 12:02:00,
2013-02-26 07:11:00,32.0,20.0,-100.00,East,85,11.0,14.0,61,0.00,,,-99.99,,2013-02-26 12:11:00,
2013-02-26 07:22:00,32.0,20.0,-100.00,ENE,75,8.0,16.0,61,0.00,,,-99.99,,2013-02-26 12:22:00,
2013-02-26 07:32:00,32.0,20.0,-100.00,ENE,75,9.0,16.0,60,0.00,,,-99.99,,2013-02-26 12:32:00,
2013-02-26 07:42:00,32.0,20.0,-100.00,East,80,9.0,14.0,60,0.00,,,-99.99,,2013-02-26 12:42:00,
2013-02-26 07:52:00,33.0,20.0,-100.00,East,85,11.0,16.0,60,0.00,,,-99.99,,2013-02-26 12:52:00,
2013-02-26 08:02:00,33.0,20.0,-100.00,East,85,11.0,17.0,59,0.00,,,-99.99,,2013-02-26 13:02:00,
2013-02-26 08:11:00,33.0,20.0,-100.00,East,80,11.0,16.0,59,0.00,,,-99.99,,2013-02-26 13:11:00,
2013-02-26 08:22:00,33.0,20.0,-100.00,East,85,11.0,16.0,59,0.00,,,-99.99,,2013-02-26 13:22:00,
2013-02-26 08:32:00,33.0,21.0,-100.00,East,85,12.0,17.0,59,0.00,,,-99.99,,2013-02-26 13:32:00,
2013-02-26 08:42:00,33.0,21.0,-100.00,East,85,15.0,21.0,59,0.00,,,-99.99,,2013-02-26 13:42:00,
2013-02-26 08:51:00,34.0,21.0,-100.00,East,80,15.0,19.0,59,0.00,,,-99.99,,2013-02-26 13:51:00,
2013-02-26 09:01:00,34.0,21.0,-100.00,East,80,13.0,21.0,58,0.00,,,-99.99,,2013-02-26 14:01:00,
2013-02-26 09:11:00,33.0,23.0,-100.00,East,95,12.0,19.0,67,0.55,,,-99.99,,2013-02-26 14:11:00,
2013-02-26 09:21:00,33.0,24.0,-100.00,East,90,12.0,19.0,69,0.55,,,-99.99,,2013-02-26 14:21:00,
2013-02-26 09:32:00,32.0,26.0,-100.00,East,90,12.0,17.0,78,0.00,,,-99.99,,2013-02-26 14:32:00,
2013-02-26 09:42:00,32.0,27.0,-100.00,East,85,11.0,19.0,81,0.55,,,-99.99,,2013-02-26 14:42:00,
2013-02-26 09:52:00,32.0,28.0,-100.00,East,85,9.0,17.0,84,0.00,,,-99.99,,2013-02-26 14:52:00,
2013-02-26 10:02:00,32.0,28.0,-100.00,East,90,10.0,17.0,86,1.10,,,-99.99,,2013-02-26 15:02:00,
2013-02-26 10:11:00,32.0,28.0,-100.00,East,85,9.0,16.0,86,0.55,,,-99.99,,2013-02-26 15:11:00,
2013-02-26 10:22:00,32.0,28.0,-100.00,East,80,9.0,16.0,86,0.00,,,-99.99,,2013-02-26 15:22:00,
2013-02-26 10:32:00,32.0,28.0,-100.00,East,80,9.0,16.0,85,0.55,,,-99.99,,2013-02-26 15:32:00,
2013-02-26 10:42:00,32.0,29.0,-100.00,East,95,7.0,12.0,86,0.55,,,-99.99,,2013-02-26 15:42:00,
2013-02-26 10:52:00,32.0,29.0,-100.00,East,85,9.0,13.0,91,0.00,,,-99.99,,2013-02-26 15:52:00,
2013-02-26 11:02:00,32.0,30.0,-100.00,East,85,10.0,14.0,92,0.55,,,-99.99,,2013-02-26 16:02:00,
2013-02-26 11:11:00,32.0,30.0,-100.00,East,85,7.0,13.0,91,0.00,,,-99.99,,2013-02-26 16:11:00,
2013-02-26 11:22:00,33.0,30.0,-100.00,East,80,8.0,12.0,91,0.00,,,-99.99,,2013-02-26 16:22:00,
2013-02-26 11:32:00,33.0,30.0,-100.00,East,80,7.0,12.0,90,0.00,,,-99.99,,2013-02-26 16:32:00,
2013-02-26 11:42:00,33.0,31.0,-100.00,East,80,9.0,14.0,90,0.00,,,-99.99,,2013-02-26 16:42:00,
2013-02-26 11:52:00,34.0,31.0,-100.00,East,80,11.0,14.0,90,0.55,,,-99.99,,2013-02-26 16:52:00,
2013-02-26 12:01:00,34.0,31.0,-100.00,East,100,12.0,16.0,91,0.55,,,-99.99,,2013-02-26 17:01:00,
2013-02-26 12:11:00,34.0,32.0,-100.00,East,80,7.0,13.0,92,0.55,,,-99.99,,2013-02-26 17:11:00,
2013-02-26 12:21:00,34.0,32.0,-100.00,East,90,9.0,13.0,92,0.55,,,-99.99,,2013-02-26 17:21:00,
2013-02-26 12:32:00,34.0,32.0,-100.00,East,85,15.0,24.0,93,0.00,,,-99.99,,2013-02-26 17:32:00,
2013-02-26 12:42:00,34.0,32.0,-100.00,East,95,16.0,22.0,93,0.00,,,-99.99,,2013-02-26 17:42:00,
2013-02-26 12:52:00,34.0,32.0,-100.00,East,80,14.0,22.0,94,0.00,,,-99.99,,2013-02-26 17:52:00,
2013-02-26 13:02:00,35.0,33.0,-100.00,East,90,17.0,27.0,93,0.00,,,-99.99,,2013-02-26 18:02:00,
2013-02-26 13:12:00,35.0,33.0,-100.00,East,95,18.0,29.0,92,0.00,,,-99.99,,2013-02-26 18:12:00,
2013-02-26 13:21:00,35.0,33.0,-100.00,East,100,19.0,29.0,91,0.00,,,-99.99,,2013-02-26 18:21:00,
2013-02-26 13:32:00,35.0,33.0,-100.00,East,100,21.0,29.0,91,0.00,,,-99.99,,2013-02-26 18:32:00,
2013-02-26 13:42:00,36.0,33.0,-100.00,East,95,19.0,32.0,91,0.00,,,-99.99,,2013-02-26 18:42:00,
2013-02-26 13:52:00,36.0,34.0,-100.00,East,95,19.0,26.0,92,0.00,,,-99.99,,2013-02-26 18:52:00,
2013-02-26 14:01:00,36.0,34.0,-100.00,East,100,20.0,33.0,91,0.00,,,-99.99,,2013-02-26 19:01:00,
2013-02-26 14:11:00,36.0,34.0,-100.00,East,100,15.0,25.0,92,0.00,,,-99.99,,2013-02-26 19:11:00,
2013-02-26 14:22:00,36.0,34.0,-100.00,East,95,12.0,25.0,92,0.55,,,-99.99,,2013-02-26 19:22:00,
2013-02-26 14:32:00,36.0,34.0,-100.00,ESE,105,16.0,25.0,93,1.10,,,-99.99,,2013-02-26 19:32:00,
2013-02-26 14:42:00,36.0,34.0,-100.00,ESE,110,14.0,22.0,94,2.24,,,-99.99,,2013-02-26 19:42:00,
2013-02-26 14:52:00,36.0,35.0,-100.00,SE,130,12.0,19.0,95,1.10,,,-99.99,,2013-02-26 19:52:00,
2013-02-26 15:01:00,36.0,35.0,-100.00,East,95,12.0,16.0,96,1.10,,,-99.99,,2013-02-26 20:01:00,
2013-02-26 15:11:00,36.0,35.0,-100.00,East,90,15.0,20.0,96,0.00,,,-99.99,,2013-02-26 20:11:00,
2013-02-26 15:21:00,36.0,35.0,-100.00,ESE,105,18.0,22.0,96,0.00,,,-99.99,,2013-02-26 20:21:00,
2013-02-26 15:32:00,37.0,35.0,-100.00,ESE,105,21.0,27.0,95,0.00,,,-99.99,,2013-02-26 20:32:00,
2013-02-26 15:41:00,37.0,35.0,-100.00,ESE,105,16.0,24.0,94,0.00,,,-99.99,,2013-02-26 20:41:00,
2013-02-26 15:52:00,37.0,35.0,-100.00,ESE,105,18.0,27.0,93,0.00,,,-99.99,,2013-02-26 20:52:00,
2013-02-26 16:01:00,37.0,35.0,-100.00,ESE,105,14.0,27.0,92,0.00,,,-99.99,,2013-02-26 21:01:00,
2013-02-26 16:11:00,36.0,34.0,-100.00,East,95,16.0,25.0,92,0.00,,,-99.99,,2013-02-26 21:11:00,
2013-02-26 16:21:00,36.0,34.0,-100.00,East,100,17.0,22.0,93,0.00,,,-99.99,,2013-02-26 21:21:00,
2013-02-26 16:31:00,36.0,34.0,-100.00,East,100,14.0,22.0,94,0.55,,,-99.99,,2013-02-26 21:31:00,
2013-02-26 16:41:00,36.0,34.0,-100.00,East,95,16.0,24.0,94,0.00,,,-99.99,,2013-02-26 21:41:00,
2013-02-26 16:51:00,36.0,34.0,-100.00,East,100,17.0,26.0,93,0.00,,,-99.99,,2013-02-26 21:51:00,
2013-02-26 17:01:00,36.0,34.0,-100.00,East,100,15.0,22.0,93,0.55,,,-99.99,,2013-02-26 22:01:00,
2013-02-26 17:11:00,36.0,34.0,-100.00,East,100,16.0,25.0,93,0.00,,,-99.99,,2013-02-26 22:11:00,
2013-02-26 17:21:00,36.0,34.0,-100.00,East,100,16.0,25.0,93,0.00,,,-99.99,,2013-02-26 22:21:00,
2013-02-26 17:32:00,36.0,34.0,-100.00,East,100,16.0,25.0,93,0.00,,,-99.99,,2013-02-26 22:32:00,
2013-02-26 17:41:00,36.0,34.0,-100.00,East,100,16.0,25.0,93,0.00,,,-99.99,,2013-02-26 22:41:00,
2013-02-26 17:51:00,36.0,34.0,-100.00,East,100,16.0,25.0,93,0.00,,,-99.99,,2013-02-26 22:51:00,